Tracking 27380 objects as of 6-Jun-2023
HD Live streaming from Space Station
objects crossing your sky now

STARLINK-1667

Track STARLINK-1667 now!
10-day predictions
STARLINK-1667 is classified as:


NORAD ID: 46155
Int'l Code: 2020-057AQ
Perigee: 553.8 km
Apogee: 555.0 km
Inclination: 53.1 °
Period: 95.6 minutes
Semi major axis: 6925 km
RCS: Unknown
Launch date: August 18, 2020
Source: United States (US)
Launch site: AIR FORCE EASTERN TEST RANGE (AFETR)
Your satellite tracking list
Your tracking list is empty




NASA's NSSDC Master Catalog

Two Line Element Set (TLE):
1 46155U 20057AQ  23156.60701570  .00012257  00000-0  84074-3 0  9991
2 46155  53.0532 122.0746 0000891 115.8995 244.2086 15.06381948155922
Source of the keplerian elements: AFSPC